COSMOS 1275 DEB, 42115

Orbit data source: Space-Track

COSMOS 1275 DEB, 42115 is space debris in LEO originally from a launch on Thu, 04 Jun 1981 UTC launched from the Plesetsk Missile And Space Complex (PKMTR). Debris objects in space refer to the collection of defunct objects orbiting the Earth. Examples of debris include non-operational satellites, rocket bodies, and fragments generated from explosions, collisions, or faulty payload assembly.

Loading next visibility...
Identifier
42115, 1981-053QB
Orbit
LEO
Country
Flag of CISCIS
Related business
Manufacturer
Unknown
Mission
Spacecraft
Bus & Motor
Unknown
Mass
Unknown
Launch date (UTC)
1981-06-04 (45 years ago)
Launch vehicle
Unknown
Launch site
Plesetsk Missile And Space Complex (PKMTR)
Object type
Payload
Rocket body
Debris
Shape & HBR
Unknown shape, 0.1 m
Radar Cross Section
Small (<0.1 m²)

Expand to show TLE details & history
Last TLE update: 20 hours ago

TLE from 20 hours ago
0 COSMOS 1275 DEB
1 42115U 81053QB  26104.76696537  .00001794  00000-0  97924-3 0  9997
2 42115  82.6546 289.8520 0059840 103.6465 257.1384 14.10676097633712
Epoch: 2026-04-14T18:24Z
TLE epoch observation values (Epoch: 2026-04-14T18:24:25.807Z)
Latitude
Longitude
170.80598°
Altitude
869.886 km
Speed
7.412 km/s
True Right ascension
19h 19m 24s
True Declination
0° 00' 00"
Sunlit
Object was in daylight at epoch
Visualization orbit readout
Latitude
Unknown
Longitude
Unknown
Altitude
Unknown
Speed
Unknown
Apparent Right ascension
Unknown
Apparent Declination
Unknown
Sunlit
N/A
Visualization observer readout
Local Sidereal Time
20:50:56
Azimuth
Unknown
Elevation
Unknown
Doppler factor
Unknown
Orbital elements
Apogee altitude
897.448 km
Perigee altitude
810.892 km
Semi-major axis
7,232.307 km
Eccentricity
0.00598
Inclination
82.6546°
RAAN
289.852°
Arg. of periapsis
103.6465°
True anomaly
256.47101°
Mean anomaly
257.1384°
Eccentric anomaly
256.80459°
Mean motion
3.52881 °/min
Orbital period
102.02 mins
BSTAR
0.00097924
Loading maneuver chart data...
Computing Atmospheric mass density...
Loading historical data...
Loading historical data...
Loading historical data...
Loading historical data...
Loading historical data...
Loading historical data...
Loading historical data...

Documentation

Showing up to 5 results
|